User: anonymous   Login
Location: ???????
(60.4260°N, 46.9069°E)
Time: 16:44:43
(UTC+00:00)
Language:

Cosmos 2333 Rocket - Orbit

View from above orbital plane
View from above orbital plane
View from above satellite
View from above satellite

Ground track
Ground track

The orbit data is extracted from the following two-line orbital elements,

1 24298U 96051B   20195.78817851 -.00000014 +00000-0 +18723-4 0  9999
2 24298 070.8418 215.0130 0017377 304.2893 055.6581 14.12502351230077
Epoch (UTC): 13 July 2020 18:54:58
Eccentricity: 0.0017377
inclination: 70.8418°
perigee height: 838 km
apogee height: 863 km
right ascension of ascending node: 215.0130°
argument of perigee: 304.2893°
revolutions per day: 14.12502351
mean anomaly at epoch: 55.6581°
orbit number at epoch: 23007

The dashed part of the orbit path shows where the satellite is in the earth's shadow,  

DLR